Startpagina
METAR-TAF:

METAR-TAF

Vliegvelden :

Juigalpa, Nicaragua

breedte: 12-06N, lengte: 085-22W, hoogte: 90 m

Actueel weer

Dit bericht is 2 uur en het 1 minuten geleden gemaakt, om 23:00 UTC
Wind 4 kt uit het oosten
Temperatuur 26°C
Vochtigheid 79%
Druk 1011 hPa
Zicht 10 km of meer
Verspreide wolken op 2000 ft, Cumulonimbus.
Gebroken wolken op 8000 ft

METAR: MNJU 152300Z 09004KT 9999 SCT020CB BKN080 26/22 Q1011 CB/N/E/SE/SW

Tijdstip: 19:01 (01:01 UTC)


TAF: ontbreekt

Waarnemingen en weersverwachtingen van meer dan 4000 vliegvelden (METAR en TAF).

De beschikbare stations zijn de gele en rode punten op de kaart.

Ga met uw muis naar het station om de naam te zien.

Klik dan om waarnemingen en weersverwachtingen te zien.

kaart wijzigen: klik op de groene knoppen met een zwart kruis om in te zoomen, op de groene knop met een streepje om uit te zoomen of op de groene pijlen voor aangrenzende kaarten.


METAR-TAF: